Year,Month,Day,Hour,Minute,Value (Times are PST for temperature in C)
2009,03,26,00,00,2.50
2009,03,26,00,01,2.50
2009,03,26,00,02,2.50
2009,03,26,00,03,2.40
2009,03,26,00,04,2.50
2009,03,26,00,05,2.50
2009,03,26,00,06,2.50
2009,03,26,00,07,2.50
2009,03,26,00,08,2.50
2009,03,26,00,09,2.50
2009,03,26,00,10,2.50
2009,03,26,00,11,2.50
2009,03,26,00,12,2.50
2009,03,26,00,13,2.50
2009,03,26,00,14,2.50
2009,03,26,00,15,2.50
2009,03,26,00,16,2.50
2009,03,26,00,17,2.50
2009,03,26,00,18,2.50
2009,03,26,00,19,2.50
2009,03,26,00,20,2.50
2009,03,26,00,21,2.50
2009,03,26,00,22,2.50
2009,03,26,00,23,2.50
2009,03,26,00,24,2.50
2009,03,26,00,25,2.50
2009,03,26,00,26,2.50
2009,03,26,00,27,2.40
2009,03,26,00,28,2.40
2009,03,26,00,29,2.40
2009,03,26,00,30,2.40
2009,03,26,00,31,2.40
2009,03,26,00,32,2.40
2009,03,26,00,33,2.40
2009,03,26,00,34,2.40
2009,03,26,00,35,2.40
2009,03,26,00,36,2.40
2009,03,26,00,37,2.40
2009,03,26,00,38,2.30
2009,03,26,00,39,2.30
2009,03,26,00,40,2.30
2009,03,26,00,41,2.30
2009,03,26,00,42,2.30
2009,03,26,00,43,2.30
2009,03,26,00,44,2.20
2009,03,26,00,45,2.20
2009,03,26,00,46,2.30
2009,03,26,00,47,2.30
2009,03,26,00,48,2.30
2009,03,26,00,49,2.30
2009,03,26,00,50,2.30
2009,03,26,00,51,2.20
2009,03,26,00,52,2.20
2009,03,26,00,53,2.20
2009,03,26,00,54,2.20
2009,03,26,00,55,2.20
2009,03,26,00,56,2.20
2009,03,26,00,57,2.10
2009,03,26,00,58,2.10
2009,03,26,00,59,2.10
2009,03,26,01,00,2.00
2009,03,26,01,01,2.00
2009,03,26,01,02,2.00
2009,03,26,01,03,1.90
2009,03,26,01,04,1.90
2009,03,26,01,05,1.90
2009,03,26,01,06,1.80
2009,03,26,01,07,1.90
2009,03,26,01,08,1.80
2009,03,26,01,09,1.80
2009,03,26,01,10,1.80
2009,03,26,01,11,1.80
2009,03,26,01,12,1.80
2009,03,26,01,13,1.80
2009,03,26,01,14,1.80
2009,03,26,01,15,1.80
2009,03,26,01,16,1.80
2009,03,26,01,17,1.80
2009,03,26,01,18,1.80
2009,03,26,01,19,1.80
2009,03,26,01,20,1.80
2009,03,26,01,21,1.80
2009,03,26,01,22,1.70
2009,03,26,01,23,1.70
2009,03,26,01,24,1.70
2009,03,26,01,25,1.70
2009,03,26,01,26,1.70
2009,03,26,01,27,1.70
2009,03,26,01,28,1.70
2009,03,26,01,29,1.70
2009,03,26,01,30,1.70
2009,03,26,01,31,1.70
2009,03,26,01,32,1.70
2009,03,26,01,33,1.70
2009,03,26,01,34,1.70
2009,03,26,01,35,1.70
2009,03,26,01,36,1.70
2009,03,26,01,37,1.70
2009,03,26,01,38,1.70
2009,03,26,01,39,1.70
2009,03,26,01,40,1.70
2009,03,26,01,41,1.70
2009,03,26,01,42,1.70
2009,03,26,01,43,1.60
2009,03,26,01,44,1.60
2009,03,26,01,45,1.60
2009,03,26,01,46,1.60
2009,03,26,01,47,1.60
2009,03,26,01,48,1.60
2009,03,26,01,49,1.60
2009,03,26,01,50,1.60
2009,03,26,01,51,1.60
2009,03,26,01,52,1.50
2009,03,26,01,53,1.50
2009,03,26,01,54,1.50
2009,03,26,01,55,1.50
2009,03,26,01,56,1.40
2009,03,26,01,57,1.40
2009,03,26,01,58,1.40
2009,03,26,01,59,1.40
2009,03,26,02,00,1.40
2009,03,26,02,01,1.40
2009,03,26,02,02,1.40
2009,03,26,02,03,1.40
2009,03,26,02,04,1.30
2009,03,26,02,05,1.30
2009,03,26,02,06,1.30
2009,03,26,02,07,1.30
2009,03,26,02,08,1.20
2009,03,26,02,09,1.20
2009,03,26,02,10,1.10
2009,03,26,02,11,1.10
2009,03,26,02,12,1.20
2009,03,26,02,13,1.10
2009,03,26,02,14,1.10
2009,03,26,02,15,1.10
2009,03,26,02,16,1.00
2009,03,26,02,17,1.00
2009,03,26,02,18,1.00
2009,03,26,02,19,1.00
2009,03,26,02,20,1.00
2009,03,26,02,21,0.90
2009,03,26,02,22,0.90
2009,03,26,02,23,0.90
2009,03,26,02,24,0.90
2009,03,26,02,25,0.90
2009,03,26,02,26,0.90
2009,03,26,02,27,0.90
2009,03,26,02,28,0.90
2009,03,26,02,29,0.90
2009,03,26,02,30,1.00
2009,03,26,02,31,1.00
2009,03,26,02,32,1.00
2009,03,26,02,33,1.00
2009,03,26,02,34,0.90
2009,03,26,02,35,0.90
2009,03,26,02,36,0.80
2009,03,26,02,37,0.90
2009,03,26,02,38,0.90
2009,03,26,02,39,0.90
2009,03,26,02,40,0.90
2009,03,26,02,41,0.90
2009,03,26,02,42,0.90
2009,03,26,02,43,0.80
2009,03,26,02,44,0.80
2009,03,26,02,45,0.80
2009,03,26,02,46,0.80
2009,03,26,02,47,0.80
2009,03,26,02,48,0.80
2009,03,26,02,49,0.80
2009,03,26,02,50,0.80
2009,03,26,02,51,0.80
2009,03,26,02,52,0.80
2009,03,26,02,53,0.80
2009,03,26,02,54,0.70
2009,03,26,02,55,0.70
2009,03,26,02,56,0.70
2009,03,26,02,57,0.70
2009,03,26,02,58,0.70
2009,03,26,02,59,0.70
2009,03,26,03,00,0.70
2009,03,26,03,01,0.70
2009,03,26,03,02,0.70
2009,03,26,03,03,0.80
2009,03,26,03,04,0.80
2009,03,26,03,05,0.80
2009,03,26,03,06,0.80
2009,03,26,03,07,0.80
2009,03,26,03,08,0.80
2009,03,26,03,09,0.80
2009,03,26,03,10,0.80
2009,03,26,03,11,0.80
2009,03,26,03,12,0.80
2009,03,26,03,13,0.80
2009,03,26,03,14,0.70
2009,03,26,03,15,0.70
2009,03,26,03,16,0.70
2009,03,26,03,17,0.60
2009,03,26,03,18,0.60
2009,03,26,03,19,0.60
2009,03,26,03,20,0.50
2009,03,26,03,21,0.50
2009,03,26,03,22,0.50
2009,03,26,03,23,0.50
2009,03,26,03,24,0.40
2009,03,26,03,25,0.40
2009,03,26,03,26,0.40
2009,03,26,03,27,0.40
2009,03,26,03,28,0.40
2009,03,26,03,29,0.40
2009,03,26,03,30,0.40
2009,03,26,03,31,0.40
2009,03,26,03,32,0.40
2009,03,26,03,33,0.40
2009,03,26,03,34,0.40
2009,03,26,03,35,0.30
2009,03,26,03,36,0.40
2009,03,26,03,37,0.40
2009,03,26,03,38,0.40
2009,03,26,03,39,0.40
2009,03,26,03,40,0.40
2009,03,26,03,41,0.40
2009,03,26,03,42,0.40
2009,03,26,03,43,0.40
2009,03,26,03,44,0.40
2009,03,26,03,45,0.40
2009,03,26,03,46,0.40
2009,03,26,03,47,0.40
2009,03,26,03,48,0.40
2009,03,26,03,49,0.40
2009,03,26,03,50,0.40
2009,03,26,03,51,0.40
2009,03,26,03,52,0.40
2009,03,26,03,53,0.40
2009,03,26,03,54,0.30
2009,03,26,03,55,0.30
2009,03,26,03,56,0.30
2009,03,26,03,57,0.30
2009,03,26,03,58,0.30
2009,03,26,03,59,0.30
2009,03,26,04,00,0.30
2009,03,26,04,01,0.30
2009,03,26,04,02,0.30
2009,03,26,04,03,0.30
2009,03,26,04,04,0.30
2009,03,26,04,05,0.30
2009,03,26,04,06,0.40
2009,03,26,04,07,0.40
2009,03,26,04,08,0.40
2009,03,26,04,09,0.40
2009,03,26,04,10,0.40
2009,03,26,04,11,0.50
2009,03,26,04,12,0.50
2009,03,26,04,13,0.50
2009,03,26,04,14,0.50
2009,03,26,04,15,0.60
2009,03,26,04,16,0.60
2009,03,26,04,17,0.60
2009,03,26,04,18,0.70
2009,03,26,04,19,0.80
2009,03,26,04,20,0.80
2009,03,26,04,21,0.80
2009,03,26,04,22,0.80
2009,03,26,04,23,0.80
2009,03,26,04,24,0.80
2009,03,26,04,25,0.80
2009,03,26,04,26,0.80
2009,03,26,04,27,0.80
2009,03,26,04,28,0.80
2009,03,26,04,29,0.80
2009,03,26,04,30,0.80
2009,03,26,04,31,0.70
2009,03,26,04,32,0.70
2009,03,26,04,33,0.60
2009,03,26,04,34,0.60
2009,03,26,04,35,0.60
2009,03,26,04,36,0.60
2009,03,26,04,37,0.50
2009,03,26,04,38,0.50
2009,03,26,04,39,0.50
2009,03,26,04,40,0.40
2009,03,26,04,41,0.40
2009,03,26,04,42,0.40
2009,03,26,04,43,0.40
2009,03,26,04,44,0.40
2009,03,26,04,45,0.40
2009,03,26,04,46,0.40
2009,03,26,04,47,0.40
2009,03,26,04,48,0.40
2009,03,26,04,49,0.40
2009,03,26,04,50,0.40
2009,03,26,04,51,0.40
2009,03,26,04,52,0.40
2009,03,26,04,53,0.40
2009,03,26,04,54,0.40
2009,03,26,04,55,0.40
2009,03,26,04,56,0.40
2009,03,26,04,57,0.40
2009,03,26,04,58,0.40
2009,03,26,04,59,0.40
2009,03,26,05,00,0.40
2009,03,26,05,01,0.40
2009,03,26,05,02,0.40
2009,03,26,05,03,0.40
2009,03,26,05,04,0.40
2009,03,26,05,05,0.40
2009,03,26,05,06,0.50
2009,03,26,05,07,0.50
2009,03,26,05,08,0.50
2009,03,26,05,09,0.50
2009,03,26,05,10,0.50
2009,03,26,05,11,0.50
2009,03,26,05,12,0.50
2009,03,26,05,13,0.50
2009,03,26,05,14,0.60
2009,03,26,05,15,0.60
2009,03,26,05,16,0.60
2009,03,26,05,17,0.60
2009,03,26,05,18,0.60
2009,03,26,05,19,0.60
2009,03,26,05,20,0.60
2009,03,26,05,21,0.70
2009,03,26,05,22,0.70
2009,03,26,05,23,0.70
2009,03,26,05,24,0.70
2009,03,26,05,25,0.70
2009,03,26,05,26,0.70
2009,03,26,05,27,0.80
2009,03,26,05,28,0.80
2009,03,26,05,29,0.80
2009,03,26,05,30,0.80
2009,03,26,05,31,0.80
2009,03,26,05,32,0.80
2009,03,26,05,33,0.80
2009,03,26,05,34,0.80
2009,03,26,05,35,0.80
2009,03,26,05,36,0.80
2009,03,26,05,37,0.80
2009,03,26,05,38,0.80
2009,03,26,05,39,0.90
2009,03,26,05,40,1.00
2009,03,26,05,41,1.00
2009,03,26,05,42,1.10
2009,03,26,05,43,1.20
2009,03,26,05,44,1.20
2009,03,26,05,45,1.30
2009,03,26,05,46,1.30
2009,03,26,05,47,1.40
2009,03,26,05,48,1.40
2009,03,26,05,49,1.50
2009,03,26,05,50,1.50
2009,03,26,05,51,1.60
2009,03,26,05,52,1.60
2009,03,26,05,53,1.60
2009,03,26,05,54,1.70
2009,03,26,05,55,1.80
2009,03,26,05,56,1.80
2009,03,26,05,57,1.80
2009,03,26,05,58,1.80
2009,03,26,05,59,1.80
2009,03,26,06,00,1.80
2009,03,26,06,01,1.80
2009,03,26,06,02,1.80
2009,03,26,06,03,1.70
2009,03,26,06,04,1.70
2009,03,26,06,05,1.60
2009,03,26,06,06,1.50
2009,03,26,06,07,1.50
2009,03,26,06,08,1.50
2009,03,26,06,09,1.50
2009,03,26,06,10,1.50
2009,03,26,06,11,1.50
2009,03,26,06,12,1.50
2009,03,26,06,13,1.50
2009,03,26,06,14,1.50
2009,03,26,06,15,1.50
2009,03,26,06,16,1.50
2009,03,26,06,17,1.50
2009,03,26,06,18,1.50
2009,03,26,06,19,1.50
2009,03,26,06,20,1.50
2009,03,26,06,21,1.40
2009,03,26,06,22,1.40
2009,03,26,06,23,1.40
2009,03,26,06,24,1.40
2009,03,26,06,25,1.40
2009,03,26,06,26,1.50
2009,03,26,06,27,1.50
2009,03,26,06,28,1.60
2009,03,26,06,29,1.70
2009,03,26,06,30,1.80
2009,03,26,06,31,1.80
2009,03,26,06,32,1.80
2009,03,26,06,33,1.80
2009,03,26,06,34,1.90
2009,03,26,06,35,1.90
2009,03,26,06,36,1.90
2009,03,26,06,37,1.90
2009,03,26,06,38,1.90
2009,03,26,06,39,1.90
2009,03,26,06,40,1.80
2009,03,26,06,41,1.80
2009,03,26,06,42,1.80
2009,03,26,06,43,1.80
2009,03,26,06,44,1.80
2009,03,26,06,45,1.70
2009,03,26,06,46,1.70
2009,03,26,06,47,1.70
2009,03,26,06,48,1.60
2009,03,26,06,49,1.60
2009,03,26,06,50,1.60
2009,03,26,06,51,1.60
2009,03,26,06,52,1.60
2009,03,26,06,53,1.60
2009,03,26,06,54,1.60
2009,03,26,06,55,1.60
2009,03,26,06,56,1.60
2009,03,26,06,57,1.60
2009,03,26,06,58,1.60
2009,03,26,06,59,1.70
2009,03,26,07,00,1.70
2009,03,26,07,01,1.70
2009,03,26,07,02,1.70
2009,03,26,07,03,1.70
2009,03,26,07,04,1.70
2009,03,26,07,05,1.70
2009,03,26,07,06,1.70
2009,03,26,07,07,1.70
2009,03,26,07,08,1.70
2009,03,26,07,09,1.70
2009,03,26,07,10,1.70
2009,03,26,07,11,1.60
2009,03,26,07,12,1.60
2009,03,26,07,13,1.60
2009,03,26,07,14,1.60
2009,03,26,07,15,1.60
2009,03,26,07,16,1.60
2009,03,26,07,17,1.60
2009,03,26,07,18,1.60
2009,03,26,07,19,1.60
2009,03,26,07,20,1.60
2009,03,26,07,21,1.70
2009,03,26,07,22,1.70
2009,03,26,07,23,1.70
2009,03,26,07,24,1.70
2009,03,26,07,25,1.70
2009,03,26,07,26,1.70
2009,03,26,07,27,1.80
2009,03,26,07,28,1.80
2009,03,26,07,29,1.80
2009,03,26,07,30,1.80
2009,03,26,07,31,1.80
2009,03,26,07,32,1.90
2009,03,26,07,33,1.90
2009,03,26,07,34,2.00
2009,03,26,07,35,2.00
2009,03,26,07,36,2.10
2009,03,26,07,37,2.10
2009,03,26,07,38,2.10
2009,03,26,07,39,2.20
2009,03,26,07,40,2.20
2009,03,26,07,41,2.20
2009,03,26,07,42,2.20
2009,03,26,07,43,2.30
2009,03,26,07,44,2.30
2009,03,26,07,45,2.30
2009,03,26,07,46,2.40
2009,03,26,07,47,2.40
2009,03,26,07,48,2.50
2009,03,26,07,49,2.50
2009,03,26,07,50,2.60
2009,03,26,07,51,2.70
2009,03,26,07,52,2.70
2009,03,26,07,53,2.70
2009,03,26,07,54,2.70
2009,03,26,07,55,2.80
2009,03,26,07,56,2.80
2009,03,26,07,57,2.80
2009,03,26,07,58,2.80
2009,03,26,07,59,2.80
2009,03,26,08,00,2.90
2009,03,26,08,01,2.90
2009,03,26,08,02,2.90
2009,03,26,08,03,2.90
2009,03,26,08,04,2.90
2009,03,26,08,05,2.90
2009,03,26,08,06,2.90
2009,03,26,08,07,3.00
2009,03,26,08,08,3.10
2009,03,26,08,09,3.10
2009,03,26,08,10,3.20
2009,03,26,08,11,3.20
2009,03,26,08,12,3.30
2009,03,26,08,13,3.30
2009,03,26,08,14,3.40
2009,03,26,08,15,3.50
2009,03,26,08,16,3.50
2009,03,26,08,17,3.60
2009,03,26,08,18,3.70
2009,03,26,08,19,3.80
2009,03,26,08,20,3.80
2009,03,26,08,21,3.80
2009,03,26,08,22,3.90
2009,03,26,08,23,3.90
2009,03,26,08,24,4.00
2009,03,26,08,25,4.00
2009,03,26,08,26,4.00
2009,03,26,08,27,4.10
2009,03,26,08,28,4.10
2009,03,26,08,29,4.20
2009,03,26,08,30,4.20
2009,03,26,08,31,4.20
2009,03,26,08,32,4.20
2009,03,26,08,33,4.20
2009,03,26,08,34,4.30
2009,03,26,08,35,4.30
2009,03,26,08,36,4.30
2009,03,26,08,37,4.30
2009,03,26,08,38,4.40
2009,03,26,08,39,4.40
2009,03,26,08,40,4.50
2009,03,26,08,41,4.50
2009,03,26,08,42,4.50
2009,03,26,08,43,4.50
2009,03,26,08,44,4.60
2009,03,26,08,45,4.60
2009,03,26,08,46,4.60
2009,03,26,08,47,4.60
2009,03,26,08,48,4.60
2009,03,26,08,49,4.60
2009,03,26,08,50,4.70
2009,03,26,08,51,4.70
2009,03,26,08,52,4.70
2009,03,26,08,53,4.70
2009,03,26,08,54,4.80
2009,03,26,08,55,4.80
2009,03,26,08,56,4.80
2009,03,26,08,57,4.80
2009,03,26,08,58,4.80
2009,03,26,08,59,4.80
2009,03,26,09,00,4.80
2009,03,26,09,01,4.90
2009,03,26,09,02,4.90
2009,03,26,09,03,4.90
2009,03,26,09,04,4.90
2009,03,26,09,05,4.90
2009,03,26,09,06,4.90
2009,03,26,09,07,4.90
2009,03,26,09,08,4.90
2009,03,26,09,09,4.90
2009,03,26,09,10,4.90
2009,03,26,09,11,4.90
2009,03,26,09,12,4.90
2009,03,26,09,13,4.90
2009,03,26,09,14,4.90
2009,03,26,09,15,4.90
2009,03,26,09,16,4.90
2009,03,26,09,17,4.90
2009,03,26,09,18,4.90
2009,03,26,09,19,5.00
2009,03,26,09,20,5.10
2009,03,26,09,21,5.10
2009,03,26,09,22,5.10
2009,03,26,09,23,5.10
2009,03,26,09,24,5.10
2009,03,26,09,25,5.10
2009,03,26,09,26,5.20
2009,03,26,09,27,5.20
2009,03,26,09,28,5.20
2009,03,26,09,29,5.30
2009,03,26,09,30,5.30
2009,03,26,09,31,5.30
2009,03,26,09,32,5.30
2009,03,26,09,33,5.30
2009,03,26,09,34,5.30
2009,03,26,09,35,5.30
2009,03,26,09,36,5.30
2009,03,26,09,37,5.40
2009,03,26,09,38,5.50
2009,03,26,09,39,5.50
2009,03,26,09,40,5.50
2009,03,26,09,41,5.50
2009,03,26,09,42,5.60
2009,03,26,09,43,5.60
2009,03,26,09,44,5.60
2009,03,26,09,45,5.60
2009,03,26,09,46,5.60
2009,03,26,09,47,5.60
2009,03,26,09,48,5.60
2009,03,26,09,49,5.60
2009,03,26,09,50,5.60
2009,03,26,09,51,5.60
2009,03,26,09,52,5.60
2009,03,26,09,53,5.70
2009,03,26,09,54,5.70
2009,03,26,09,55,5.70
2009,03,26,09,56,5.70
2009,03,26,09,57,5.70
2009,03,26,09,58,5.70
2009,03,26,09,59,5.70
2009,03,26,10,00,5.70
2009,03,26,10,01,5.70
2009,03,26,10,02,5.70
2009,03,26,10,03,5.70
2009,03,26,10,04,5.70
2009,03,26,10,05,5.70
2009,03,26,10,06,5.70
2009,03,26,10,07,5.70
2009,03,26,10,08,5.70
2009,03,26,10,09,5.70
2009,03,26,10,10,5.70
2009,03,26,10,11,5.70
2009,03,26,10,12,5.70
2009,03,26,10,13,5.70
2009,03,26,10,14,5.70
2009,03,26,10,15,5.80
2009,03,26,10,16,5.80
2009,03,26,10,17,5.80
2009,03,26,10,18,5.80
2009,03,26,10,19,5.80
2009,03,26,10,20,5.80
2009,03,26,10,21,5.90
2009,03,26,10,22,5.90
2009,03,26,10,23,6.00
2009,03,26,10,24,6.00
2009,03,26,10,25,6.00
2009,03,26,10,26,6.00
2009,03,26,10,27,6.00
2009,03,26,10,28,5.90
2009,03,26,10,29,5.90
2009,03,26,10,30,5.90
2009,03,26,10,31,5.90
2009,03,26,10,32,5.90
2009,03,26,10,33,5.90
2009,03,26,10,34,5.90
2009,03,26,10,35,5.80
2009,03,26,10,36,5.80
2009,03,26,10,37,5.80
2009,03,26,10,38,5.70
2009,03,26,10,39,5.70
2009,03,26,10,40,5.70
2009,03,26,10,41,5.70
2009,03,26,10,42,5.70
2009,03,26,10,43,5.70
2009,03,26,10,44,5.70
2009,03,26,10,45,5.70
2009,03,26,10,46,5.60
2009,03,26,10,47,5.60
2009,03,26,10,48,5.60
2009,03,26,10,49,5.60
2009,03,26,10,50,5.60
2009,03,26,10,51,5.60
2009,03,26,10,52,5.60
2009,03,26,10,53,5.60
2009,03,26,10,54,5.60
2009,03,26,10,55,5.70
2009,03,26,10,56,5.70
2009,03,26,10,57,5.70
2009,03,26,10,58,5.70
2009,03,26,10,59,5.70
2009,03,26,11,00,5.70
2009,03,26,11,01,5.70
2009,03,26,11,02,5.70
2009,03,26,11,03,5.70
2009,03,26,11,04,5.70
2009,03,26,11,05,5.70
2009,03,26,11,06,5.70
2009,03,26,11,07,5.70
2009,03,26,11,08,5.70
2009,03,26,11,09,5.70
2009,03,26,11,10,5.80
2009,03,26,11,11,5.80
2009,03,26,11,12,5.80
2009,03,26,11,13,5.70
2009,03,26,11,14,5.70
2009,03,26,11,15,5.70
2009,03,26,11,16,5.80
2009,03,26,11,17,5.80
2009,03,26,11,18,5.70
2009,03,26,11,19,5.70
2009,03,26,11,20,5.80
2009,03,26,11,21,5.80
2009,03,26,11,22,5.90
2009,03,26,11,23,5.90
2009,03,26,11,24,5.90
2009,03,26,11,25,5.90
2009,03,26,11,26,6.00
2009,03,26,11,27,5.90
2009,03,26,11,28,6.00
2009,03,26,11,29,5.90
2009,03,26,11,30,5.90
2009,03,26,11,31,5.80
2009,03,26,11,32,5.70
2009,03,26,11,33,5.70
2009,03,26,11,34,5.80
2009,03,26,11,35,5.80
2009,03,26,11,36,5.80
2009,03,26,11,37,5.80
2009,03,26,11,38,5.80
2009,03,26,11,39,5.90
2009,03,26,11,40,5.90
2009,03,26,11,41,5.90
2009,03,26,11,42,5.90
2009,03,26,11,43,5.80
2009,03,26,11,44,5.70
2009,03,26,11,45,5.80
2009,03,26,11,46,5.90
2009,03,26,11,47,5.90
2009,03,26,11,48,5.80
2009,03,26,11,49,5.80
2009,03,26,11,50,5.90
2009,03,26,11,51,5.80
2009,03,26,11,52,5.80
2009,03,26,11,53,5.80
2009,03,26,11,54,5.90
2009,03,26,11,55,6.00
2009,03,26,11,56,6.00
2009,03,26,11,57,6.00
2009,03,26,11,58,6.00
2009,03,26,11,59,6.10
2009,03,26,12,00,6.10
2009,03,26,12,01,6.00
2009,03,26,12,02,6.00
2009,03,26,12,03,6.00
2009,03,26,12,04,6.00
2009,03,26,12,05,6.00
2009,03,26,12,06,6.00
2009,03,26,12,07,6.10
2009,03,26,12,08,6.20
2009,03,26,12,09,6.20
2009,03,26,12,10,6.20
2009,03,26,12,11,6.20
2009,03,26,12,12,6.20
2009,03,26,12,13,6.20
2009,03,26,12,14,6.20
2009,03,26,12,15,6.30
2009,03,26,12,16,6.30
2009,03,26,12,17,6.20
2009,03,26,12,18,6.30
2009,03,26,12,19,6.20
2009,03,26,12,20,6.20
2009,03,26,12,21,6.20
2009,03,26,12,22,6.10
2009,03,26,12,23,6.10
2009,03,26,12,24,6.10
2009,03,26,12,25,6.20
2009,03,26,12,26,6.20
2009,03,26,12,27,6.20
2009,03,26,12,28,6.20
2009,03,26,12,29,6.20
2009,03,26,12,30,6.20
2009,03,26,12,31,6.20
2009,03,26,12,32,6.30
2009,03,26,12,33,6.30
2009,03,26,12,34,6.40
2009,03,26,12,35,6.40
2009,03,26,12,36,6.40
2009,03,26,12,37,6.40
2009,03,26,12,38,6.40
2009,03,26,12,39,6.60
2009,03,26,12,40,6.60
2009,03,26,12,41,6.60
2009,03,26,12,42,6.60
2009,03,26,12,43,6.60
2009,03,26,12,44,6.60
2009,03,26,12,45,6.60
2009,03,26,12,46,6.60
2009,03,26,12,47,6.60
2009,03,26,12,48,6.60
2009,03,26,12,49,6.60
2009,03,26,12,50,6.60
2009,03,26,12,51,6.70
2009,03,26,12,52,6.70
2009,03,26,12,53,6.70
2009,03,26,12,54,6.70
2009,03,26,12,55,6.70
2009,03,26,12,56,6.60
2009,03,26,12,57,6.60
2009,03,26,12,58,6.60
2009,03,26,12,59,6.60
2009,03,26,13,00,6.60
2009,03,26,13,01,6.60
2009,03,26,13,02,6.60
2009,03,26,13,03,6.60
2009,03,26,13,04,6.70
2009,03,26,13,05,6.70
2009,03,26,13,06,6.80
2009,03,26,13,07,6.80
2009,03,26,13,08,6.80
2009,03,26,13,09,6.70
2009,03,26,13,10,6.70
2009,03,26,13,11,6.70
2009,03,26,13,12,6.80
2009,03,26,13,13,6.80
2009,03,26,13,14,6.80
2009,03,26,13,15,6.90
2009,03,26,13,16,6.90
2009,03,26,13,17,7.00
2009,03,26,13,18,7.00
2009,03,26,13,19,7.00
2009,03,26,13,20,7.00
2009,03,26,13,21,7.00
2009,03,26,13,22,7.00
2009,03,26,13,23,7.00
2009,03,26,13,24,7.10
2009,03,26,13,25,7.10
2009,03,26,13,26,7.20
2009,03,26,13,27,7.10
2009,03,26,13,28,7.10
2009,03,26,13,29,7.00
2009,03,26,13,30,6.90
2009,03,26,13,31,6.90
2009,03,26,13,32,7.00
2009,03,26,13,33,7.00
2009,03,26,13,34,7.10
2009,03,26,13,35,7.10
2009,03,26,13,36,7.20
2009,03,26,13,37,7.20
2009,03,26,13,38,7.20
2009,03,26,13,39,7.20
2009,03,26,13,40,7.30
2009,03,26,13,41,7.30
2009,03,26,13,42,7.30
2009,03,26,13,43,7.30
2009,03,26,13,44,7.30
2009,03,26,13,45,7.30
2009,03,26,13,46,7.30
2009,03,26,13,47,7.30
2009,03,26,13,48,7.30
2009,03,26,13,49,7.30
2009,03,26,13,50,7.30
2009,03,26,13,51,7.40
2009,03,26,13,52,7.40
2009,03,26,13,53,7.50
2009,03,26,13,54,7.60
2009,03,26,13,55,7.70
2009,03,26,13,56,7.70
2009,03,26,13,57,7.70
2009,03,26,13,58,7.70
2009,03,26,13,59,7.70
2009,03,26,14,00,7.70
2009,03,26,14,01,7.70
2009,03,26,14,02,7.70
2009,03,26,14,03,7.70
2009,03,26,14,04,7.60
2009,03,26,14,05,7.50
2009,03,26,14,06,7.50
2009,03,26,14,07,7.40
2009,03,26,14,08,7.40
2009,03,26,14,09,7.50
2009,03,26,14,10,7.50
2009,03,26,14,11,7.50
2009,03,26,14,12,7.50
2009,03,26,14,13,7.50
2009,03,26,14,14,7.50
2009,03,26,14,15,7.60
2009,03,26,14,16,7.60
2009,03,26,14,17,7.70
2009,03,26,14,18,7.70
2009,03,26,14,19,7.70
2009,03,26,14,20,7.60
2009,03,26,14,21,7.60
2009,03,26,14,22,7.60
2009,03,26,14,23,7.60
2009,03,26,14,24,7.60
2009,03,26,14,25,7.70
2009,03,26,14,26,7.70
2009,03,26,14,27,7.80
2009,03,26,14,28,7.80
2009,03,26,14,29,7.80
2009,03,26,14,30,7.80
2009,03,26,14,31,7.70
2009,03,26,14,32,7.70
2009,03,26,14,33,7.80
2009,03,26,14,34,7.70
2009,03,26,14,35,7.70
2009,03,26,14,36,7.80
2009,03,26,14,37,7.90
2009,03,26,14,38,7.90
2009,03,26,14,39,8.00
2009,03,26,14,40,8.00
2009,03,26,14,41,7.90
2009,03,26,14,42,7.90
2009,03,26,14,43,7.90
2009,03,26,14,44,7.80
2009,03,26,14,45,7.80
2009,03,26,14,46,7.70
2009,03,26,14,47,7.60
2009,03,26,14,48,7.70
2009,03,26,14,49,7.70
2009,03,26,14,50,7.80
2009,03,26,14,51,7.90
2009,03,26,14,52,7.90
2009,03,26,14,53,8.00
2009,03,26,14,54,8.00
2009,03,26,14,55,8.00
2009,03,26,14,56,8.00
2009,03,26,14,57,8.00
2009,03,26,14,58,7.90
2009,03,26,14,59,7.90
2009,03,26,15,00,7.80
2009,03,26,15,01,7.80
2009,03,26,15,02,7.80
2009,03,26,15,03,7.80
2009,03,26,15,04,7.80
2009,03,26,15,05,7.80
2009,03,26,15,06,7.80
2009,03,26,15,07,7.80
2009,03,26,15,08,7.80
2009,03,26,15,09,7.80
2009,03,26,15,10,7.70
2009,03,26,15,11,7.60
2009,03,26,15,12,7.70
2009,03,26,15,13,7.70
2009,03,26,15,14,7.70
2009,03,26,15,15,7.70
2009,03,26,15,16,7.60
2009,03,26,15,17,7.60
2009,03,26,15,18,7.60
2009,03,26,15,19,7.70
2009,03,26,15,20,7.70
2009,03,26,15,21,7.70
2009,03,26,15,22,7.60
2009,03,26,15,23,7.50
2009,03,26,15,24,7.50
2009,03,26,15,25,7.50
2009,03,26,15,26,7.50
2009,03,26,15,27,7.50
2009,03,26,15,28,7.60
2009,03,26,15,29,7.60
2009,03,26,15,30,7.70
2009,03,26,15,31,7.70
2009,03,26,15,32,7.80
2009,03,26,15,33,7.80
2009,03,26,15,34,7.80
2009,03,26,15,35,7.80
2009,03,26,15,36,7.80
2009,03,26,15,37,7.80
2009,03,26,15,38,7.80
2009,03,26,15,39,7.80
2009,03,26,15,40,7.80
2009,03,26,15,41,7.80
2009,03,26,15,42,7.70
2009,03,26,15,43,7.60
2009,03,26,15,44,7.60
2009,03,26,15,45,7.70
2009,03,26,15,46,7.70
2009,03,26,15,47,7.80
2009,03,26,15,48,7.80
2009,03,26,15,49,7.80
2009,03,26,15,50,7.90
2009,03,26,15,51,7.90
2009,03,26,15,52,7.90
2009,03,26,15,53,7.90
2009,03,26,15,54,7.90
2009,03,26,15,55,7.90
2009,03,26,15,56,7.90
2009,03,26,15,57,8.00
2009,03,26,15,58,8.00
2009,03,26,15,59,8.20
2009,03,26,16,00,8.20
2009,03,26,16,01,8.20
2009,03,26,16,02,8.20
2009,03,26,16,03,8.20
2009,03,26,16,04,8.20
2009,03,26,16,05,8.20
2009,03,26,16,06,8.20
2009,03,26,16,07,8.20
2009,03,26,16,08,8.20
2009,03,26,16,09,8.20
2009,03,26,16,10,8.20
2009,03,26,16,11,8.00
2009,03,26,16,12,8.00
2009,03,26,16,13,8.00
2009,03,26,16,14,7.90
2009,03,26,16,15,7.90
2009,03,26,16,16,7.90
2009,03,26,16,17,7.80
2009,03,26,16,18,7.80
2009,03,26,16,19,7.80
2009,03,26,16,20,7.90
2009,03,26,16,21,7.90
2009,03,26,16,22,7.90
2009,03,26,16,23,7.90
2009,03,26,16,24,8.00
2009,03,26,16,25,8.00
2009,03,26,16,26,8.10
2009,03,26,16,27,8.10
2009,03,26,16,28,8.20
2009,03,26,16,29,8.20
2009,03,26,16,30,8.20
2009,03,26,16,31,8.20
2009,03,26,16,32,8.20
2009,03,26,16,33,8.20
2009,03,26,16,34,8.30
2009,03,26,16,35,8.30
2009,03,26,16,36,8.40
2009,03,26,16,37,8.30
2009,03,26,16,38,8.30
2009,03,26,16,39,8.30
2009,03,26,16,40,8.20
2009,03,26,16,41,8.20
2009,03,26,16,42,8.20
2009,03,26,16,43,8.10
2009,03,26,16,44,8.10
2009,03,26,16,45,8.10
2009,03,26,16,46,8.10
2009,03,26,16,47,8.10
2009,03,26,16,48,8.10
2009,03,26,16,49,8.10
2009,03,26,16,50,8.20
2009,03,26,16,51,8.20
2009,03,26,16,52,8.20
2009,03,26,16,53,8.20
2009,03,26,16,54,8.20
2009,03,26,16,55,8.20
2009,03,26,16,56,8.20
2009,03,26,16,57,8.20
2009,03,26,16,58,8.20
2009,03,26,16,59,8.30
2009,03,26,17,00,8.20
2009,03,26,17,01,8.20
2009,03,26,17,02,8.20
2009,03,26,17,03,8.20
2009,03,26,17,04,8.20
2009,03,26,17,05,8.20
2009,03,26,17,06,8.20
2009,03,26,17,07,8.20
2009,03,26,17,08,8.20
2009,03,26,17,09,8.10
2009,03,26,17,10,8.00
2009,03,26,17,11,8.00
2009,03,26,17,12,8.00
2009,03,26,17,13,8.00
2009,03,26,17,14,8.00
2009,03,26,17,15,8.10
2009,03,26,17,16,8.10
2009,03,26,17,17,8.10
2009,03,26,17,18,8.10
2009,03,26,17,19,8.10
2009,03,26,17,20,8.20
2009,03,26,17,21,8.20
2009,03,26,17,22,8.20
2009,03,26,17,23,8.20
2009,03,26,17,24,8.20
2009,03,26,17,25,8.10
2009,03,26,17,26,8.10
2009,03,26,17,27,8.10
2009,03,26,17,28,8.10
2009,03,26,17,29,8.10
2009,03,26,17,30,8.10
2009,03,26,17,31,8.10
2009,03,26,17,32,8.10
2009,03,26,17,33,8.20
2009,03,26,17,34,8.20
2009,03,26,17,35,8.20
2009,03,26,17,36,8.20
2009,03,26,17,37,8.10
2009,03,26,17,38,8.10
2009,03,26,17,39,8.10
2009,03,26,17,40,8.10
2009,03,26,17,41,8.10
2009,03,26,17,42,8.10
2009,03,26,17,43,8.10
2009,03,26,17,44,8.20
2009,03,26,17,45,8.20
2009,03,26,17,46,8.20
2009,03,26,17,47,8.20
2009,03,26,17,48,8.20
2009,03,26,17,49,8.20
2009,03,26,17,50,8.20
2009,03,26,17,51,8.20
2009,03,26,17,52,8.20
2009,03,26,17,53,8.20
2009,03,26,17,54,8.20
2009,03,26,17,55,8.20
2009,03,26,17,56,8.20
2009,03,26,17,57,8.20
2009,03,26,17,58,8.20
2009,03,26,17,59,8.20
2009,03,26,18,00,8.20
2009,03,26,18,01,8.20
2009,03,26,18,02,8.20
2009,03,26,18,03,8.20
2009,03,26,18,04,8.20
2009,03,26,18,05,8.20
2009,03,26,18,06,8.20